This demonstration page uses our WeatherBlox Daily Observations layout. Learn more.

Left ArrowRight Arrow

Hourly Observations for January 15, 2019

Temp ( °F °C ) Dew Point ( °F °C ) Humidity (%) Winds ( mph kmh ) Pressure ( in mb ) Visibility ( mi km ) Precip ( " mm )
12:59 am 00:59 Mostly Cloudy 33 0.6 25 -3.9 72 72 N 6 9 30.20 1023 10 16 0.00 0.00
1:59 am 01:59 Mostly Cloudy 34 1.1 24 -4.4 67 67 NNW 7 11 30.21 1023 10 16 0.00 0.00
2:59 am 02:59 Mostly Cloudy 33 0.6 23 -5 66 66 N 7 11 30.20 1023 10 16 0.00 0.00
3:59 am 03:59 Mostly Cloudy 33 0.6 23 -5 66 66 NNW 6 9 30.19 1022 10 16 0.00 0.00
4:59 am 04:59 Mostly Cloudy 33 0.6 24 -4.4 70 70 NW 7 11 30.19 1023 10 16 0.00 0.00
5:59 am 05:59 Mostly Cloudy 34 1.1 25 -3.9 70 70 NW 8 13 30.19 1022 10 16 0.00 0.00
6:59 am 06:59 Mostly Cloudy 34 1.1 27 -2.8 76 76 NNW 9 15 30.21 1023 9 14 0.00 0.00
7:59 am 07:59 Mostly Cloudy 35 1.7 27 -2.8 72 72 NNW 10 17 30.22 1023 8 13 0.00 0.00
8:59 am 08:59 Partly Cloudy 34 1.1 26 -3.3 73 73 NNW 9 15 30.24 1024 8 13 0.00 0.00
9:59 am 09:59 Mostly Sunny 38 3.3 27 -2.8 65 65 N 10 17 30.26 1025 9 14 0.00 0.00
10:59 am 10:59 Mostly Sunny 40 4.4 26 -3.3 58 58 N 10 17 30.26 1025 10 16 0.00 0.00
11:59 am 11:59 Mostly Sunny 41 5 27 -2.8 57 57 NNE 10 17 30.23 1024 10 16 0.00 0.00
12:59 pm 12:59 Mostly Sunny 42 5.6 26 -3.3 53 53 N 9 15 30.20 1023 10 16 0.00 0.00
1:59 pm 13:59 Mostly Sunny 42 5.6 26 -3.3 53 53 NNE 6 9 30.19 1022 10 16 0.00 0.00
2:59 pm 14:59 Partly Cloudy 40 4.4 26 -3.3 58 58 Calm 30.20 1023 10 16 0.00 0.00
3:59 pm 15:59 Partly Cloudy 42 5.6 28 -2.2 58 58 WNW 12 19 30.20 1023 10 16 0.00 0.00
4:59 pm 16:59 Mostly Cloudy 40 4.4 26 -3.3 58 58 NW 10 17 30.20 1023 10 16 0.00 0.00
5:59 pm 17:59 Mostly Cloudy 39 3.9 27 -2.8 62 62 NW 6 9 30.20 1023 10 16 0.00 0.00
6:59 pm 18:59 Mostly Cloudy 36 2.2 27 -2.8 70 70 NW 6 9 30.21 1023 10 16 0.00 0.00
7:59 pm 19:59 Mostly Cloudy 33 0.6 27 -2.8 78 78 Calm 30.22 1023 10 16 0.00 0.00
8:59 pm 20:59 Mostly Cloudy 31 -0.6 26 -3.3 82 82 Calm 30.21 1023 9 14 0.00 0.00
9:59 pm 21:59 Partly Cloudy 31 -0.6 28 -2.2 89 89 Calm 30.21 1023 7 11 0.00 0.00
10:59 pm 22:59 Partly Cloudy 30 -1.1 28 -2.2 92 92 Calm 30.21 1023 7 11 0.00 0.00
11:59 pm 23:59 Partly Cloudy 30 -1.1 27 -2.8 88 88 S 3 6 30.20 1023 7 11 0.00 0.00

Powered by AerisWeather